Regional Weather Roundup
Issued by NWS

Home | Current Version | Previous Version | Graphics & Text | Print | Product List | Glossary Off
Versions: 1 2 3 4 5 6 7 8 9 10 11 12 13 14 15 16 17 18 19 20 21 22 23 24 25 26 27 28 29 30 31 32 33 34 35 36 37 38 39 40 41 42 43 44 45 46 47 48 49 50

000
ASUS43 KMKX 251000
RWRWI

WISCONSIN REGIONAL WEATHER ROUNDUP
NATIONAL WEATHER SERVICE MILWAUKEE/SULLIVAN WI
500 AM CDT TUE JUL 25 2017

NOTE: "FAIR" INDICATES FEW OR NO CLOUDS BELOW 12,000 FEET WITH NO
SIGNIFICANT WEATHER AND/OR OBSTRUCTIONS TO VISIBILITY.

WIZ001-002-006>008-014>016-023>028-251100-
NORTHWEST WISCONSIN

CITY           SKY/WX    TMP DP  RH WIND       PRES   REMARKS
SUPERIOR ARPT  NOT AVBL
ASHLAND        CLEAR     50  49  96 S5        30.09S
HAYWARD        CLOUDY    56  53  90 E3        30.10R
SIREN          MOCLDY    64  59  82 SE7       30.06F
CUMBERLAND     PTCLDY    61  59  94 S5        30.10R
RICE LAKE      MOCLDY    62  59  90 CALM      30.11R
CHETEK         LGT RAIN  62  60  94 N3        30.09R
LADYSMITH      CLOUDY    60  57  90 SE7       30.11F
EAU CLAIRE     NOT AVBL
MENOMONIE      CLOUDY    62  60  94 SE6       30.09R
NEW RICHMOND   CLOUDY    64  59  85 SE3       30.07S
OSCEOLA        CLOUDY    64  64 100 E5        30.10S
$$

WIZ003>005-009-010-017-018-251100-
NORTH CENTRAL WISCONSIN

CITY           SKY/WX    TMP DP  RH WIND       PRES   REMARKS
MANITOWISH WTR MOCLDY    56  56 100 S7        30.15R
ARBOR VITAE    MOCLDY    58  54  85 S5        30.14R
WOODRUFF       MOCLDY    58  54  85 S5        30.14R
RHINELANDER    MOCLDY    54  52  93 CALM      30.16S
EAGLE RIVER    PTCLDY    53  51  92 CALM      30.14F
LAND O LAKES   CLEAR     49  49  99 CALM      30.16F FOG
PHILLIPS       CLOUDY    58  56  90 S7        30.13R
TOMAHAWK         N/A     52  50  95 CALM      30.15S
MEDFORD        CLOUDY    56  53  91 S5        30.14S
MERRILL        PTCLDY    50  50  99 CALM      30.15S
$$

WIZ029-030-035-036-043>047-251100-
CENTRAL WISCONSIN

CITY           SKY/WX    TMP DP  RH WIND       PRES   REMARKS
WAUSAU         CLOUDY    56  52  86 SE6       30.14S
MOSINEE        PTCLDY    54  52  94 SE3       30.16S
MARSHFIELD     PTCLDY    55  52  89 S5        30.14S
STEVENS POINT  MOCLDY    51  51 100 CALM      30.16R
WAUPACA          N/A     54  53  98 CALM      30.16S FOG
WAUTOMA        CLEAR     50  49  96 CALM      30.17R
WISC RAPIDS    PTCLDY    54  52  93 CALM      30.17R
CAMP DOUGLAS   NOT AVBL
$$

WIZ011>013-019>022-031-037>040-048>050-251100-
NORTHEAST WISCONSIN

CITY           SKY/WX    TMP DP  RH WIND       PRES   REMARKS
ANTIGO         PTCLDY    52  50  95 S3        30.17R
SHAWANO        PTCLDY    55  52  92 CALM      30.15F FOG
OCONTO         PTCLDY    51  49  95 CALM      30.16R
STURGEON BAY     N/A     54  50  86 CALM      30.17S
GREEN BAY      CLOUDY    52  52 100 CALM      30.16S
MANITOWOC      NOT AVBL
APPLETON       PTCLDY    55  43  62 CALM      30.15S
CLINTONVILLE   CLEAR    N/A N/A N/A CALM      30.15S
OSHKOSH        PTCLDY    52  49  89 CALM      30.15S
$$

WIZ032>034-041-042-053>061-251100-
SOUTHWEST WISCONSIN

CITY           SKY/WX    TMP DP  RH WIND       PRES   REMARKS
LA CROSSE      PTCLDY    64  59  83 SE7       30.10F
SPARTA         PTCLDY    53  52  98 E3        30.15S
VIROQUA        PTCLDY    59  59  99 CALM      30.14F
BOSCOBEL       CLEAR     57  56  96 CALM      30.14S FOG
PRAIRIE DU CHI CLEAR     61  58  90 E5        30.13S
PLATTEVILLE    CLEAR     58  58 100 SE5       30.16R
$$

WIZ056-057-062-063-064-067-068-251100-
SOUTH CENTRAL WISCONSIN

CITY           SKY/WX    TMP DP  RH WIND       PRES   REMARKS
REEDSBURG      PTCLDY    56  56 100 CALM      30.15R
BARABOO/DELLS  PTCLDY    55  52  89 CALM      30.15R
LONE ROCK      NOT AVBL
MINERAL POINT  CLEAR     59  59 100 SE5       30.16R
MADISON        CLEAR     53  52  96 CALM      30.15S
MIDDLETON        N/A     53  53 100 CALM      30.16F VSB 1/2
WATERTOWN      CLEAR     52  52 100 CALM      30.16S
MONROE         CLEAR     57  55  94 SE6       30.16R
JANESVILLE     CLEAR     55  55 100 CALM      30.16R
$$

WIZ051-052-058>065-066-070>072-251100-
SOUTHEAST WISCONSIN

CITY           SKY/WX    TMP DP  RH WIND       PRES   REMARKS
MILWAUKEE      PTCLDY    60  56  86 NW5       30.17R
WAUKESHA       CLEAR     52  52 100 CALM      30.19R
MILWAUKEE/TIMM CLEAR     54  50  87 CALM      30.18S
RACINE         CLEAR     57  56  96 CALM      30.19R
KENOSHA        CLEAR     55  54  96 CALM      30.17R
FOND DU LAC    CLEAR     51  48  89 CALM      30.15F
SHEBOYGAN      PTCLDY    50  50 100 W3        30.17R
WEST BEND      CLEAR     50  50 100 CALM      30.17S
JUNEAU         CLEAR     52  51  94 CALM      30.17F
$$

LSZ147-162-251100-
LAKE SUPERIOR

STATION/POSITION TIME  TEMP    WIND        PRES    WAVE
                       AIR SEA DIR/SP/G            HT/PER
                 (UTC) (F)     (DEG/KT/KT) (MB)    (FT/S)
W MID LAKE BUOY  0850   55 49  230/  6/  8 1018.3R   0
DEVILS ISLAND    0900   64     190/  6/  8 1018.2R
SAXON HARBOR     0940   58     200/  2/  5 1018.3R
$$

LMZ867-665-643>646-251100-
LAKE MICHIGAN

STATION/POSITION TIME  TEMP    WIND        PRES    WAVE
                       AIR SEA DIR/SP/G            HT/PER
                 (UTC) (F)     (DEG/KT/KT) (MB)    (FT/S)
CHAMBERS ISLAND  0940   55     160/  1/  2 1020.7R
S GREEN BAY BUOY 0930   68 72  140/  6/  6 1020.8R
N MID LAKE BUOY  0850   65 66  120/  2/  2 1021.5R   0
NORTHPORT PIER   0940   58     200/  1/  2 1021.3R
KEWAUNEE LAKESHO 0930   54     300/  4/  4 1020.2R
SHEBOYGAN LAKESH 0900   61     270/  5/  6 1020.9R
PORT WASHINGTON  0940   58     260/  3/  5 1022.4R
ATWATER BUOY     0809   65 68  300/  4/  6 1021.2R
MILWAUKEE LAKESH 0950   63     300/  3/  3   N/A
S MID LAKE BUOY  0850   70 71   40/  4/  4 1021.0R   2/ 5
KENOSHA   LAKESH 0900   63      CALM  /  2 1021.0
$$

TC  - TEMPERATURE IN CELSIUS
VSB - VISIBILITY IN STATUTE MILES
WCI - WIND CHILL INDEX
HX  - HEAT INDEX




USA.gov is the U.S. government's official web portal to all federal, state and local government web resources and services.